#timestamp,LO_Frequency,Hit,StdDev 
1624456815.7,286047000.4,N
1624456835.6,286047002.8,N
1624456855.4,286047002.3,N
1624456875.3,286047000.2,N
1624456895.1,286047001.1,N
1624456896.0,286047001.1,N
1624456915.8,286046998.3,N
1624456935.7,286046998.5,N
1624456955.5,286046998.4,N
1624456975.3,286046999.5,N
1624456995.2,286046998.1,N
1624457015.0,286047000.5,N
1624457015.9,286047000.5,N
1624457035.8,286047002.8,N
1624457055.6,286047000.2,N
1624457075.4,286047000.1,N
1624457095.3,286047002.6,N
1624457115.1,286047001.8,N
1624457135.8,286047003.5,N
1624457155.7,286047001.4,N
1624457175.5,286047003.7,N
1624457195.4,286047002.8,N
1624457215.2,286047002.2,N
1624457235.0,286047002.4,N
1624457235.9,286047002.4,N
1624457255.8,286047001.5,N
1624457275.6,286047002.8,N
1624457295.5,286047000.2,N
1624457315.3,286047000.2,N
1624457335.1,286047000.6,N
1624457355.9,286047001.2,N
1624457375.7,286046998.5,N
1624457395.5,286047000.8,N
1624457415.4,286047000.5,N
1624457435.2,286047000.8,N
1624457455.1,286046999.9,N
1624457456.0,286046999.9,N
1624457475.8,286047000.4,N
1624457495.6,286047000.8,N
1624457515.5,286046998.2,N
1624457535.3,286047000.8,N
1624457555.1,286046999.6,N
1624457575.9,286046996.9,N
1624457595.7,286046999.4,N
1624457615.6,286046998.8,N
1624457635.4,286046998.8,N
1624457655.2,286046998.3,N
1624457675.1,286046999.6,N
1624457676.0,286046999.6,N
1624457695.8,286046999.6,N
1624457715.6,286046997.7,N
1624457735.5,286046995.3,Y
1624457755.3,286046995.1,P
1624457775.2,286046995.6,N
1624457795.0,286046997.8,N
1624457795.9,286046997.8,N
1624457815.8,286046997.8,N
1624457835.6,286046996.5,N
1624457855.4,286046998.9,N
1624457875.3,286047000.7,N
1624457895.1,286046999.4,N
1624457915.8,286046998.6,N
1624457935.7,286046999.1,N
1624457955.5,286046998.3,N
1624457975.4,286046998.8,N
1624457995.2,286046999.0,N
1624458015.0,286046998.3,N
1624458015.9,286046998.3,N
1624458035.8,286046998.3,N
1624458055.6,286047001.2,N
1624458075.4,286046998.2,N
1624458095.3,286047000.5,N
1624458115.1,286046996.6,N
1624458135.9,286046999.5,N
1624458155.7,286046997.0,N
1624458175.5,286046999.2,N
1624458195.4,286046999.1,N
1624458215.2,286046998.9,N
1624458235.0,286046998.5,N
1624458235.9,286046998.5,N
1624458255.8,286046998.2,N
1624458275.6,286047001.1,N
1624458295.5,286046998.3,N
1624458315.3,286046998.2,N
1624458335.1,286047001.2,N
1624458355.9,286046998.8,N
1624458375.7,286047001.1,N
1624458395.6,286046998.1,N
1624458415.4,286046998.3,N
1624458435.2,286046998.3,N
1624458455.1,286046998.2,N
1624458456.0,286046998.2,N
1624458475.8,286047000.7,N
1624458495.7,286047000.9,N
1624458515.5,286047000.9,N
1624458535.3,286046998.2,N
1624458555.2,286046998.6,N
1624458575.0,286046998.6,N
1624458575.9,286046998.6,N
1624458595.8,286046998.7,N
1624458615.6,286046998.9,N
1624458635.4,286046998.2,N
1624458655.3,286046998.4,N
1624458675.1,286046999.0,N
1624458695.9,286046998.5,N
1624458715.7,286047000.1,N
1624458735.5,286047000.3,N
1624458755.4,286046998.1,N
1624458775.2,286046998.6,N
1624458795.1,286047000.9,N
1624458796.0,286047000.9,N
1624458815.8,286047001.0,N
1624458835.6,286047000.7,N
1624458855.5,286046998.3,N
1624458875.3,286046999.6,N
1624458895.1,286046999.2,N
1624458915.9,286046999.3,N
1624458935.7,286046999.5,N
1624458955.6,286046999.5,N
1624458975.4,286046998.2,N
1624458995.2,286046999.6,N
1624459015.1,286046998.6,N
1624459016.0,286046998.6,N
1624459035.8,286046999.2,N
1624459055.7,286046997.0,Y
1624459075.5,286046998.9,P
1624459095.3,286046998.9,P
1624459115.2,286046999.4,P
1624459135.9,286046998.8,Y
1624459155.7,286046998.5,P
1624459175.6,286047000.1,N
1624459195.4,286047001.6,N
1624459215.3,286047002.0,N
1624459235.1,286047002.6,N
1624459236.0,286047002.6,N
1624459255.8,286047002.5,N
1624459275.7,286047002.5,N
1624459295.5,286047000.2,N
1624459315.3,286047002.1,N
1624459335.2,286047001.6,N
1624459355.0,286047002.0,N
1624459355.9,286047002.0,N
1624459375.8,286047002.1,N
1624459395.6,286047002.3,N
1624459415.4,286047002.7,N
1624459435.3,286047002.7,N
1624459455.1,286047000.1,N
1624459475.8,286047000.6,N
1624459495.7,286046999.9,N
1624459515.5,286047000.1,N
1624459535.4,286047002.8,N
1624459555.2,286046999.9,N
1624459575.0,286047002.5,N
1624459575.9,286047002.5,N
1624459595.8,286047002.0,N
1624459615.6,286047002.2,N
1624459635.5,286047002.2,N
1624459655.3,286047002.1,N
1624459675.1,286047000.2,N
1624459695.9,286047001.0,N
1624459715.7,286047000.9,N
1624459735.6,286047002.3,N
1624459755.4,286047002.8,N
1624459775.2,286046999.7,N
1624459795.1,286046999.7,N
1624459796.0,286046999.7,N
1624459815.8,286047002.8,N
1624459835.6,286047001.9,N
1624459855.5,286047001.9,N
1624459875.3,286047002.5,N
1624459895.2,286047002.4,N
1624459915.9,286047002.3,N
1624459935.7,286046999.7,N
1624459955.6,286047002.0,N
1624459975.4,286047002.3,N
1624459995.2,286047002.6,N
1624460015.1,286047000.5,N
1624460016.0,286047000.5,N
1624460035.8,286046999.8,N
1624460055.7,286047002.0,N
1624460075.5,286047002.6,N
1624460095.3,286047001.1,N
1624460115.2,286047000.5,N
1624460135.9,286047000.7,N
1624460155.7,286047001.0,N
1624460175.6,286047000.2,N
1624460195.4,286047002.6,N
1624460215.2,286047001.8,N
1624460235.1,286047002.0,N
1624460236.0,286047002.0,N
1624460255.8,286047004.2,Y
1624460275.7,286047002.7,P
1624460295.5,286047002.8,P
1624460315.3,286047000.4,N
1624460335.2,286047002.4,N
1624460355.0,286047001.6,N
1624460355.9,286047001.6,N
1624460375.8,286047001.7,N
1624460395.6,286047002.8,Y
